Terminal Aerodrome Forecast
Issued by NWS

Current Version | Previous Version | Graphics & Text | Print | Product List | Glossary On
Versions: 1 2 3 4 5 6 7 8 9 10 11 12 13 14 15 16 17 18 19 20 21 22 23 24 25 26 27 28 29 30 31 32 33 34 35 36 37 38 39 40 41 42 43 44 45
000
FTUS41 KRNK 012026 AAA
TAFLWB
TAF AMD
KLWB 012026Z 0120/0218 36003KT 3SM BR SCT004 OVC025
     FM012200 00000KT 1SM -RA BR OVC004
     FM020300 26004KT 5SM BR OVC007
     FM020900 28007KT 4SM -SN SCT005 OVC012
     FM021300 30010G17KT P6SM OVC015=

USA.gov is the U.S. government's official web portal to all federal, state and local government web resources and services.